Regional Weather Roundup
Issued by NWS Wilmington, NC

Home | Current Version | Previous Version | Text Only | Print | Product List | Glossary On
Versions: 1 2 3 4 5 6 7 8 9 10 11 12 13 14 15 16 17 18 19 20 21 22 23 24 25 26 27 28 29 30 31 32 33 34 35 36 37 38 39 40 41 42 43 44 45 46 47 48 49 50
000
ASUS42 KILM 301810
RWRILM
RWRILM
REGIONAL HOURLY WEATHER ROUNDUP
NATIONAL WEATHER SERVICE WILMINGTON NC
100 PM EST FRI JAN 30 2015

NOTE: "FAIR" INDICATES FEW OR NO CLOUDS BELOW 12,000 FEET WITH NO
SIGNIFICANT WEATHER AND/OR OBSTRUCTIONS TO VISIBILITY.

...............WFO WILMINGTON COUNTY WARNING AREA...............

......COASTAL NC AND SC COUNTIES......

CITY           SKY/WX    TMP DP  RH WIND       PRES   REMARKS
WILMINGTON     SUNNY     51  27  39 NW21G30   30.06S
SOUTHPORT      MOSUNNY   52  29  42 NW15G26   30.06S
N MYRTLE BEACH SUNNY     53  29  39 N8G24     30.08F
MYRTLE BEACH   NOT AVBL

......INLAND NC AND SC COUNTIES.......

CITY           SKY/WX    TMP DP  RH WIND       PRES   REMARKS
LUMBERTON      MOSUNNY   50  24  36 NW18G25   30.11F
ELIZABETHTOWN  MOSUNNY   50  23  34 NW13G26   30.09S
WHITEVILLE     SUNNY     51  25  36 W8G23     30.08F
FLORENCE       SUNNY     53  24  32 NW16G30   30.13F
DARLINGTON     SUNNY     52  25  35 NW22G31   30.16F

....................REST OF NORTH CAROLINA......................

.........EASTERN NC.........

CITY           SKY/WX    TMP DP  RH WIND       PRES   REMARKS
CAPE HATTERAS  CLOUDY    42  36  79 VRB7      29.99S
JACKSONVILLE   PTSUNNY   48  25  40 NW12G21   30.06S
MOREHEAD CITY  CLOUDY    48  31  51 N21G30    30.01S
KENANSVILLE    PTSUNNY   48  22  36 NW14G21   30.08F
NEW BERN       CLOUDY    50  25  37 NW14G23   30.04S
ELIZABETH CITY CLOUDY    42  28  57 NW17      30.01F

.........CENTRAL NC.........

CITY           SKY/WX    TMP DP  RH WIND       PRES   REMARKS
RALEIGH DURHAM MOSUNNY   46  20  35 NW14G25   30.09F
ROCKY MOUNT    MOSUNNY   49  19  30 NW16G26   30.06F
ROANOKE RAPIDS NOT AVBL
FAYETTEVILLE   SUNNY     49  20  31 NW17G28   30.10F
HOFFMAN        MOSUNNY   48  21  34 N15G30    30.14F

.........WESTERN NC.........

CITY           SKY/WX    TMP DP  RH WIND       PRES   REMARKS
CHARLOTTE      MOSUNNY   48  14  25 NW15G28   30.17F
GREENSBORO     MOSUNNY   46  13  26 NW20G33   30.10F
HICKORY        NOT AVBL
BOONE          NOT AVBL
ASHEVILLE      NOT AVBL

.....................REST OF SOUTH CAROLINA.....................

.........EASTERN SC.........

CITY           SKY/WX    TMP DP  RH WIND       PRES   REMARKS
CHARLESTON     MOSUNNY   57  30  35 NW16G25   30.13S
BEAUFORT MCAS  MOSUNNY   59  36  42 NW14G26   30.15F
HILTON HEAD    SUNNY     57  37  47 N10G20    30.15F

.........CENTRAL SC.........

CITY           SKY/WX    TMP DP  RH WIND       PRES   REMARKS
COLUMBIA       MOSUNNY   52  22  30 NW15G25   30.18F
ORANGEBURG     SUNNY     54  19  25 N15G26    30.16F
SUMTER SHAW    SUNNY     54  23  30 NW16G23   30.14F

.........WESTERN SC.........

CITY           SKY/WX    TMP DP  RH WIND       PRES   REMARKS
GREENVILLE     NOT AVBL
ROCK HILL      SUNNY     49  18  29 N15G24    30.17F
ANDERSON       SUNNY     51  19  28 W14       30.20F
CLEMSON        NOT AVBL
GREENWOOD      SUNNY     51  21  30 N12G17    30.20F


...................COASTAL AND OFFSHORE REPORTS..................

................LOCAL PIERS AND NC RESERVE................


STATION/POSITION TIME  SKY/WX   TEMP    WIND        PRES    VSBY
                                AIR SEA DIR/SP/G
                 (UTC)          (F)     (DEG/KT/KT) (MB)    (MI)
JOHNY MRCER PIER 1800            50 54  320/ 19/ 23 1016.8S
NC RESRV MASNBRO NOT AVBL
OCEAN CREST PIER 1800            51 53  310/ 14/ 21 1016.8F
SPRINGMAID  PIER 1800            51 50  280/ 12/ 17 1018.8F


................COASTAL AND OFFSHORE BUOYS................


STATION/POSITION TIME  SKY/WX   TEMP    WIND        PRES    VSBY
                                AIR SEA DIR/SP/G
                 (UTC)          (F)     (DEG/KT/KT) (MB)    (MI)
DIMNDSHOAL 41025 1800            45 68  340/ 25/ 31 1014.3S
WVE H/P(F/S)=  5/ 5 WND WVE H/P(F/S)=  5/ 5 SWL H/P/D(F/S/D)=  2/ 30/ 9

CAPE LOOKOUT     1800            47     350/ 17/ 22 1015.8F
ONSLOW BAY 41036 NOT AVBL
5 WRITEBCH 41038 1700            49 52  330/ 21/ 23 1017.2F
MASONBORO  41110 1800               52                N/A
WVE H/P(F/S)=  3/ 4 WND WVE H/P(F/S)=  3/ 4

WILM HARBR 41108 1800               53                N/A
WVE H/P(F/S)=  4/ 4 WND WVE H/P(F/S)=  5/ 4

27WRITEBCH 41037 NOT AVBL
FRYING PAN 41013 1800            50 63  320/ 19/ 23 1017.8F
WVE H/P(F/S)=  5/ 7 WND WVE H/P(F/S)=  5/ 7

SUNST NRSH 41024 1700            52     340/ 21/ 25   N/A
CAPRS NRSH 41029 1700            54     330/ 21/ 25   N/A
EDISTO     41004 1800            55 68  320/ 19/ 25 1018.5S
WVE H/P(F/S)=  5/ 5 WND WVE H/P(F/S)=  5/ 5 SWL H/P/D(F/S/D)=  2/12



..........OFFSHORE BUOYS BEYOND 100 NM OFFSHORE...........
.....IN A TRIANGLE---HAT TO BERMUDA TO BAHAMAS TO HAT.....


STATION/POSITION TIME  SKY/WX   TEMP    WIND        PRES    VSBY
                                AIR SEA DIR/SP/G
                 (UTC)          (F)     (DEG/KT/KT) (MB)    (MI)
150E HAT   41001 NOT AVBL
W BERMUDA  41048 1734            64 71  210/ 17/ 21 1015.0F
WVE H/P(F/S)=  5/ 8 WND WVE H/P(F/S)=  3/ 5 SWL H/P/D(F/S/D)=  3/ 8

ATLANTIC S 41049 1747            69 74  360/  6/ 10 1017.2F
WVE H/P(F/S)=  8/10 WND WVE H/P(F/S)=  2/ 4 SWL H/P/D(F/S/D)=  8/340/10

E BAHAMAS  41046 1712            72 78   50/  6/  8 1017.5F
WVE H/P(F/S)=  7/ 9 WND WVE H/P(F/S)=  2/ 3 SWL H/P/D(F/S/D)=  7/360/ 9

NE BAHAMAS 41047 1720            67 76  240/  6/  8 1019.5F
WVE H/P(F/S)=  6/ 9 WND WVE H/P(F/S)=  2/ 4 SWL H/P/D(F/S/D)=  7/360/ 9

120E CANVRL41010 1800            69 74  270/ 21/ 27 1019.1F
WVE H/P(F/S)=  6/11 WND WVE H/P(F/S)=  5/ 5 SWL H/P/D(F/S/D)=  3/ 50/11


END


USA.gov is the U.S. government's official web portal to all federal, state and local government web resources and services.